Flag for Australia Weather past 2 weeks in Tamworth, New South Wales, Australia

Now
43 °F

Passing clouds.


Feels Like: 39 °F
Forecast: 35 / 61 °F
Wind: 7 mph from North

Location: Tamworth Airport

Current Time: Sep 1, 2015 at 1:57:26 AM

Latest Report: Sep 1, 2015 at 1:00 AM


Visibility: N/A

Pressure: 30.04 "Hg

Humidity: 81%

Dew point: 37 °F

Location of TamworthLocation

Historic Weather in Tamworth — Graph

°F

Tamworth temperature yesterday

Maximum temperature yesterday: 63 °F (at 3:00 PM)
Minimum temperature yesterday: 34 °F (at 3:00 AM)
Average temperature yesterday: 48 °F

Past Weeks' High & Low Weather Summary

 TemperatureHumidityPressure
High73 °F (Aug 22, 1:00 PM)94% (Aug 23, 3:30 AM)30.36 "Hg (Aug 23, 3:30 AM)
Low30 °F (Aug 18, 5:00 AM)31% (Aug 21, 2:00 PM)29.92 "Hg (Aug 24, 4:00 PM)
Average52 °F73%30.15 "Hg
* Reported Midnight between Aug 16 and Aug 17 — Midnight between Aug 31 and Sep 1, Tamworth, Weather by CustomWeather, © 2015

Note: Actual official high and low records may vary slightly from our data, if they occured in-between our weather recording intervals... More about our weather records

Advertising

Tamworth weather history for previous 24 hours

 ConditionsComfort  
Time TempWeatherWind HumidityBarometerVisibility
12:00 AM
Tue, Sep 1
41 °FClear.6 mph87%30.04 "HgN/A
11:00 PM
Mon, Aug 31
43 °FPassing clouds.5 mph87%30.04 "HgN/A
10:30 PM45 °FClear.3 mph81%30.04 "HgN/A
10:00 PM45 °FClear.5 mph81%30.04 "HgN/A
9:30 PM46 °FPassing clouds.5 mph76%30.04 "HgN/A
9:00 PM46 °FPassing clouds.No wind76%30.04 "HgN/A
8:30 PM48 °FClear.5 mph71%30.01 "HgN/A
8:00 PM50 °FPassing clouds.1 mph71%30.01 "HgN/A
7:30 PM48 °FClear.6 mph76%30.01 "HgN/A
7:00 PM50 °FPassing clouds.3 mph71%30.01 "HgN/A
6:30 PM54 °FClear.5 mph63%29.98 "HgN/A
6:00 PM54 °FPassing clouds.5 mph63%29.98 "HgN/A
5:30 PM57 °FMostly cloudy.2 mph55%29.98 "HgN/A
5:00 PM59 °FPassing clouds.3 mph48%29.98 "HgN/A
4:30 PM59 °FPartly sunny.7 mph48%29.98 "HgN/A
4:00 PM63 °FScattered clouds.9 mph42%29.95 "HgN/A
3:00 PM63 °FPartly sunny.8 mph39%29.98 "HgN/A
2:30 PM61 °FScattered clouds.7 mph45%29.98 "HgN/A
2:00 PM59 °FScattered clouds.6 mph51%29.98 "HgN/A
1:30 PM59 °FScattered clouds.7 mph48%29.98 "HgN/A
1:00 PM59 °FBroken clouds.8 mph48%30.01 "HgN/A
12:30 PM59 °FSunny.8 mph51%30.01 "HgN/A
12:00 PM59 °FSunny.6 mph48%30.01 "HgN/A
11:30 AM57 °FSunny.6 mph55%30.04 "HgN/A
11:00 AM55 °FSunny.7 mph63%30.04 "HgN/A
10:30 AM54 °FSunny.3 mph63%30.04 "HgN/A
10:00 AM52 °FSunny.5 mph67%30.07 "HgN/A
9:30 AM52 °FSunny.3 mph62%30.07 "HgN/A
9:00 AM50 °FSunny.3 mph71%30.07 "HgN/A
8:30 AM45 °FSunny.3 mph81%30.07 "HgN/A
8:00 AM43 °FSunny.3 mph81%30.07 "HgN/A
7:30 AM39 °FSunny.1 mph93%30.07 "HgN/A
7:00 AM34 °FSunny.No wind93%30.07 "HgN/A
6:30 AM34 °FSunny.No wind93%30.04 "HgN/A
6:00 AM34 °FSunny.No wind87%30.04 "HgN/A
5:00 AM36 °FClear.No wind93%30.04 "HgN/A
4:30 AM34 °FClear.No wind93%30.04 "HgN/A
4:00 AM36 °FClear.No wind87%30.04 "HgN/A
3:00 AM34 °FClear.No wind87%30.04 "HgN/A
2:30 AM37 °FClear.6 mph87%30.04 "HgN/A
2:00 AM37 °FClear.6 mph93%30.07 "HgN/A
1:30 AM39 °FClear.No wind87%30.07 "HgN/A
1:00 AM36 °FClear.No wind87%30.07 "HgN/A
Weather by CustomWeather, © 2015

See weather overviewHow to use our weather pages